Trinity Center, CA

7:54 AM PDT on April 25, 2017 (GMT -0700)
Trinity Center

Weather History for KO86 - October, 2013

Change the Weather History Date:

Monday, October 14, 2013

  Actual Average (KMHS) Record (KMHS)
Temperature  
Mean Temperature 52 °F -  
Max Temperature 71 °F 64 °F 88 °F (2015)
Min Temperature 32 °F 35 °F 23 °F (1966)
Degree Days  
Heating Degree Days 14    
Growing Degree Days 2 (Base 50)    
Moisture  
Dew Point 32 °F    
Average Humidity 59    
Maximum Humidity 100    
Minimum Humidity 17    
Precipitation  
Precipitation 0.00 in - - ()
Sea Level Pressure  
Sea Level Pressure 30.20 in    
Wind  
Wind Speed 3 mph (WSW)    
Max Wind Speed 7 mph    
Max Gust Speed -    
Visibility 10 miles    
Events      
Averages and records for this station are not official NWS values.
T = Trace of Precipitation, MM = Missing Value Source: NWS Daily Summary

Daily Weather History Graph

Daily Weather History Graph

Search for Another Location

Airport or City:

Trip Planner

Search our weather history database for the weather conditions in past years. The results will help you decide how hot, cold, wet, or windy it might be!

Date:

Astronomy

Oct. 14, 2013 Rise Set
Actual Time 7:21 AM PDT 6:31 PM PDT
Civil Twilight 6:53 AM PDT 6:58 PM PDT
Nautical Twilight 6:21 AM PDT 7:30 PM PDT
Astronomical Twilight 5:50 AM PDT 8:02 PM PDT
Moon 4:05 PM PDT (10/14) 2:42 AM PDT (10/14)
Length of Visible Light 12h 05m
Length of Day
11h 09m
Waxing Gibbous, 80% of the Moon is Illuminated
Oct 14
Waxing Gibbous
Oct 18
Full
Oct 26
Last Quarter
Nov 3
New
Nov 9
First Quarter

Hourly Weather History & Observations

Time (PDT) Temp. Windchill Dew Point Humidity Pressure Visibility Wind Dir Wind Speed Gust Speed Precip Events Conditions
12:10 AM 39.2 °F 35.9 °F 33.8 °F 81% 30.21 in 10.0 mi West 4.6 mph - N/A   Clear
12:30 AM 39.2 °F 37.0 °F 33.8 °F 81% 30.21 in 10.0 mi West 3.5 mph - N/A   Clear
12:50 AM 39.2 °F 35.0 °F 32.0 °F 75% 30.21 in 10.0 mi West 5.8 mph - N/A   Clear
1:10 AM 39.2 °F 35.9 °F 32.0 °F 75% 30.21 in 10.0 mi West 4.6 mph - N/A   Clear
1:30 AM 39.2 °F 35.0 °F 32.0 °F 75% 30.22 in 10.0 mi West 5.8 mph - N/A   Clear
1:50 AM 39.2 °F 35.9 °F 32.0 °F 75% 30.22 in 10.0 mi West 4.6 mph - N/A   Clear
2:10 AM 37.4 °F - 32.0 °F 81% 30.22 in 10.0 mi Calm Calm - N/A   Clear
2:30 AM 37.4 °F 34.9 °F 32.0 °F 81% 30.22 in 10.0 mi West 3.5 mph - N/A   Clear
2:50 AM 35.6 °F 32.8 °F 32.0 °F 87% 30.22 in 10.0 mi West 3.5 mph - N/A   Clear
3:10 AM 37.4 °F 32.8 °F 32.0 °F 81% 30.22 in 10.0 mi West 5.8 mph - N/A   Clear
3:30 AM 35.6 °F 31.7 °F 32.0 °F 87% 30.22 in 10.0 mi West 4.6 mph - N/A   Clear
3:50 AM 37.4 °F 33.8 °F 32.0 °F 81% 30.21 in 10.0 mi West 4.6 mph - N/A   Clear
4:10 AM 35.6 °F 31.7 °F 32.0 °F 87% 30.22 in 10.0 mi West 4.6 mph - N/A   Clear
4:30 AM 35.6 °F 32.8 °F 32.0 °F 87% 30.22 in 10.0 mi West 3.5 mph - N/A   Clear
4:50 AM 35.6 °F 32.8 °F 32.0 °F 87% 30.22 in 10.0 mi West 3.5 mph - N/A   Clear
5:10 AM 35.6 °F 32.8 °F 32.0 °F 87% 30.22 in 10.0 mi WNW 3.5 mph - N/A   Clear
5:30 AM 33.8 °F 29.6 °F 32.0 °F 93% 30.22 in 10.0 mi West 4.6 mph - N/A   Clear
5:50 AM 33.8 °F 30.8 °F 32.0 °F 93% 30.22 in 10.0 mi West 3.5 mph - N/A   Clear
6:10 AM 33.8 °F 29.6 °F 32.0 °F 93% 30.23 in 10.0 mi West 4.6 mph - N/A   Clear
6:30 AM 33.8 °F - 32.0 °F 93% 30.23 in 10.0 mi Calm Calm - N/A   Clear
6:50 AM 33.8 °F 30.8 °F 32.0 °F 93% 30.23 in 10.0 mi West 3.5 mph - N/A   Clear
7:10 AM 35.6 °F 31.7 °F 32.0 °F 87% 30.24 in 10.0 mi West 4.6 mph - N/A   Clear
7:30 AM 33.8 °F 30.8 °F 32.0 °F 93% 30.24 in 10.0 mi WNW 3.5 mph - N/A   Clear
7:50 AM 32.0 °F 28.7 °F 32.0 °F 100% 30.24 in 10.0 mi WNW 3.5 mph - N/A   Clear
8:10 AM 37.4 °F - 32.0 °F 81% 30.25 in 10.0 mi Calm Calm - N/A   Clear
8:30 AM 39.2 °F - 32.0 °F 75% 30.25 in 10.0 mi Calm Calm - N/A   Clear
8:50 AM 41.0 °F - 33.8 °F 76% 30.25 in 10.0 mi Calm Calm - N/A   Clear
9:10 AM 42.8 °F - 35.6 °F 76% 30.25 in 10.0 mi Calm Calm - N/A   Clear
9:30 AM 44.6 °F - 35.6 °F 71% 30.25 in 10.0 mi Calm Calm - N/A   Clear
9:50 AM 46.4 °F 45.2 °F 35.6 °F 66% 30.25 in 10.0 mi SSE 3.5 mph - N/A   Clear
10:10 AM 48.2 °F - 35.6 °F 62% 30.24 in 10.0 mi Calm Calm - N/A   Clear
10:30 AM 50.0 °F - 33.8 °F 54% 30.24 in 10.0 mi Calm Calm - N/A   Clear
10:50 AM 51.8 °F - 33.8 °F 50% 30.23 in 10.0 mi Calm Calm - N/A   Clear
11:10 AM 53.6 °F - 32.0 °F 44% 30.23 in 10.0 mi Calm Calm - N/A   Clear
11:30 AM 57.2 °F - 35.6 °F 44% 30.22 in 10.0 mi Calm Calm - N/A   Clear
11:50 AM 59.0 °F - 33.8 °F 39% 30.21 in 10.0 mi SE 3.5 mph - N/A   Clear
12:10 PM 62.6 °F - 32.0 °F 32% 30.21 in 10.0 mi Calm Calm - N/A   Clear
12:30 PM 62.6 °F - 32.0 °F 32% 30.20 in 10.0 mi Calm Calm - N/A   Clear
12:50 PM 64.4 °F - 32.0 °F 30% 30.19 in 10.0 mi Calm Calm - N/A   Clear
1:10 PM 66.2 °F - 32.0 °F 28% 30.19 in 10.0 mi East 3.5 mph - N/A   Clear
1:30 PM 68.0 °F - 30.2 °F 24% 30.17 in 10.0 mi SE 3.5 mph - N/A   Clear
1:50 PM 68.0 °F - 26.6 °F 21% 30.16 in 10.0 mi Calm Calm - N/A   Clear
2:10 PM 68.0 °F - 26.6 °F 21% 30.16 in 10.0 mi Calm Calm - N/A   Clear
2:30 PM 68.0 °F - 23.0 °F 18% 30.15 in 10.0 mi Calm Calm - N/A   Clear
2:50 PM 69.8 °F - 24.8 °F 18% 30.14 in 10.0 mi South 3.5 mph - N/A   Clear
3:10 PM 69.8 °F - 24.8 °F 18% 30.13 in 10.0 mi SE 3.5 mph - N/A   Clear
3:30 PM 69.8 °F - 24.8 °F 18% 30.13 in 10.0 mi South 3.5 mph - N/A   Clear
3:50 PM 71.6 °F - 24.8 °F 17% 30.13 in 10.0 mi South 4.6 mph - N/A   Clear
4:10 PM 71.6 °F - 24.8 °F 17% 30.13 in 10.0 mi South 5.8 mph - N/A   Clear
4:30 PM 69.8 °F - 26.6 °F 20% 30.12 in 10.0 mi South 4.6 mph - N/A   Clear
4:50 PM 68.0 °F - 26.6 °F 21% 30.12 in 10.0 mi South 5.8 mph - N/A   Clear
5:10 PM 68.0 °F - 28.4 °F 23% 30.12 in 10.0 mi South 5.8 mph - N/A   Clear
5:30 PM 66.2 °F - 28.4 °F 24% 30.12 in 10.0 mi SSW 3.5 mph - N/A   Clear
5:50 PM 60.8 °F - 33.8 °F 36% 30.13 in 1.8 mi West 4.6 mph - N/A   Clear
6:10 PM 59.0 °F - 35.6 °F 42% 30.13 in 10.0 mi West 6.9 mph - N/A   Clear
6:30 PM 59.0 °F - 33.8 °F 39% 30.14 in 10.0 mi West 6.9 mph - N/A   Clear
6:50 PM 57.2 °F - 33.8 °F 41% 30.14 in 10.0 mi WSW 4.6 mph - N/A   Clear
7:10 PM 53.6 °F - 35.6 °F 51% 30.15 in 10.0 mi Calm Calm - N/A   Clear
7:30 PM 51.8 °F - 35.6 °F 54% 30.15 in 10.0 mi Calm Calm - N/A   Clear
7:50 PM 50.0 °F - 35.6 °F 58% 30.16 in 10.0 mi Calm Calm - N/A   Clear
8:10 PM 48.2 °F - 35.6 °F 62% 30.16 in 10.0 mi SSW 3.5 mph - N/A   Clear
8:30 PM 48.2 °F - 35.6 °F 62% 30.17 in 10.0 mi Calm Calm - N/A   Clear
8:50 PM 46.4 °F - 35.6 °F 66% 30.18 in 10.0 mi Calm Calm - N/A   Clear
9:10 PM 46.4 °F 45.2 °F 35.6 °F 66% 30.19 in 10.0 mi WSW 3.5 mph - N/A   Clear
9:30 PM 44.6 °F 42.2 °F 33.8 °F 66% 30.19 in 10.0 mi West 4.6 mph - N/A   Clear
9:50 PM 44.6 °F 43.1 °F 33.8 °F 66% 30.20 in 10.0 mi West 3.5 mph - N/A   Clear
10:10 PM 44.6 °F 43.1 °F 32.0 °F 61% 30.20 in 10.0 mi WSW 3.5 mph - N/A   Clear
10:30 PM 44.6 °F - 32.0 °F 61% 30.21 in 10.0 mi Calm Calm - N/A   Clear
10:50 PM 42.8 °F 41.1 °F 32.0 °F 66% 30.21 in 10.0 mi WSW 3.5 mph - N/A   Clear
11:10 PM 41.0 °F 39.0 °F 32.0 °F 70% 30.21 in 10.0 mi SW 3.5 mph - N/A   Clear
11:30 PM 41.0 °F 39.0 °F 32.0 °F 70% 30.21 in 10.0 mi West 3.5 mph - N/A   Clear
11:50 PM 41.0 °F 38.0 °F 32.0 °F 70% 30.22 in 10.0 mi WSW 4.6 mph - N/A   Clear